Theta_e
316 318 319 319 318 319 320 320 321 320 317 316 318 319 319 314 312 314 312 310 308 306 302 302 304 301 300 300 301 302 301 300 300 299 298 297 295 294 293 292 292 292 292 293
315 318 318 319 318 319 319 319 320 320 318 314 317 319 318 317 313 313 312 310 307 304 303 302 303 300 299 299 299 300 300 301 299 298 296 295 294 292 291 290 290 290 290 290
319 320 317 318 316 317 318 319 319 319 318 315 316 319 319 318 313 309 308 308 305 304 302 302 303 300 299 298 298 299 298 297 296 295 293 292 292 292 291 290 289 289 288 288
317 318 315 317 316 316 318 318 317 317 317 320 318 323 322 321 311 308 307 305 304 303 301 300 300 300 298 297 296 296 296 295 295 295 295 294 293 291 290 289 289 288 288 287
318 315 315 316 317 315 318 315 315 316 318 320 321 321 321 318 314 311 307 305 303 301 300 299 298 296 295 295 295 293 293 292 293 293 292 292 291 290 290 289 289 288 287 286
315 312 314 316 314 314 314 315 315 315 318 324 322 323 324 320 316 314 308 305 302 300 298 296 294 293 293 292 292 292 292 291 291 291 291 291 291 290 290 290 289 288 287 286
317 316 314 313 315 312 315 317 323 326 323 324 318 324 323 318 312 313 307 304 301 299 297 294 292 292 292 292 291 291 291 290 291 291 290 290 290 290 289 289 288 288 286 285
324 324 317 314 317 319 316 318 326 332 329 325 312 319 321 310 309 309 306 304 301 298 296 293 292 291 291 291 291 291 290 290 290 289 289 289 289 289 288 288 287 286 285 284
324 324 316 316 315 318 318 320 319 321 313 320 320 317 312 308 307 307 305 303 301 297 295 293 292 291 291 291 291 290 290 289 289 289 289 288 288 288 288 287 285 284 283 282
322 325 315 313 311 313 317 316 318 322 328 329 324 322 321 311 309 307 305 303 301 298 295 294 292 291 291 291 290 290 290 289 289 288 288 288 288 287 286 285 284 283 283 283
319 321 315 311 314 317 314 316 317 319 321 326 327 322 316 316 311 307 306 303 301 298 296 294 292 291 290 290 290 290 289 289 288 288 288 287 287 285 284 284 283 283 282 282
318 321 326 316 312 312 316 317 317 321 321 319 321 323 310 311 312 308 306 303 301 298 296 294 292 291 291 290 290 289 289 289 288 288 288 287 285 284 284 283 283 282 281 279
318 317 326 322 315 310 312 314 315 316 320 324 324 322 307 307 309 308 307 304 302 299 297 295 293 291 291 290 290 289 289 289 288 287 286 285 284 283 283 282 281 279 279 278
315 316 323 328 322 317 315 314 313 316 320 321 321 320 310 309 309 307 307 304 302 299 297 295 294 292 291 290 290 290 289 288 287 287 285 284 283 282 281 280 279 279 278 277
315 315 317 320 318 312 315 316 314 314 316 320 320 319 316 311 310 308 306 305 303 300 298 296 295 293 291 290 290 289 289 287 287 286 284 283 282 281 280 279 279 278 277 277
311 316 316 319 319 316 314 313 315 314 314 315 316 318 311 312 309 308 307 305 303 301 299 297 295 293 291 290 290 289 288 287 285 284 283 282 281 280 279 278 278 278 277 277
310 312 314 320 314 310 313 313 313 314 313 314 316 315 309 307 308 309 307 305 303 302 299 297 295 293 291 290 289 288 287 286 284 283 282 281 280 278 278 278 278 278 277 276
308 311 313 317 309 317 311 299 312 314 313 312 311 310 309 308 307 305 307 305 303 301 299 297 295 293 291 290 288 287 286 284 283 282 282 280 279 277 277 278 278 277 276 275
301 310 308 313 313 313 310 303 307 311 313 311 310 310 307 297 297 301 299 302 303 301 299 298 296 293 290 289 287 286 284 283 282 281 281 279 278 277 277 278 278 277 275 274
300 303 313 307 314 315 315 298 295 304 311 308 308 309 305 297 308 309 296 296 297 298 297 296 293 292 289 288 287 285 283 282 281 281 280 279 278 278 278 278 277 275 274 273
305 306 311 310 313 312 308 294 293 310 314 297 305 304 298 302 304 296 294 293 293 292 292 292 291 289 288 286 284 283 282 282 281 281 280 278 278 278 277 276 275 274 273 272
307 309 308 309 310 310 293 291 299 301 292 294 298 297 297 296 292 291 291 290 289 288 289 287 287 286 285 285 285 283 282 281 282 280 278 278 278 277 276 275 274 273 271 270
305 306 309 309 308 294 293 295 294 293 294 292 294 294 295 293 290 290 289 289 288 287 286 286 285 284 283 284 284 283 282 282 281 279 278 278 277 275 274 273 272 271 271 270
295 293 299 301 296 294 292 292 290 291 292 291 291 292 292 292 290 289 288 287 286 286 285 285 285 283 282 283 283 284 282 281 280 279 277 276 275 273 272 271 271 270 270 269
295 293 295 296 291 292 293 292 293 291 289 288 288 290 291 291 290 289 288 287 286 286 285 285 284 283 283 283 282 282 282 281 280 278 276 274 272 271 271 271 270 270 270 269
291 293 295 299 294 296 296 295 293 291 289 289 289 288 289 289 289 288 287 287 286 285 285 284 284 284 284 283 282 282 281 281 279 276 274 272 271 271 270 270 269 269 269 269
Wind_Speed
10 10 15 20 18 19 13 13 15 11 3 6 14 16 14 14 12 13 12 10 8 6 5 5 7 9 11 11 13 18 23 24 28 30 31 29 26 25 25 25 23 21 20 19
5 17 19 15 11 16 17 16 16 14 5 5 15 19 17 14 16 15 13 11 10 8 8 8 9 10 11 13 15 19 20 22 21 21 20 20 21 25 24 24 24 22 23 23
19 8 8 16 11 12 16 18 15 17 4 11 14 22 23 21 11 7 9 9 9 11 10 9 12 13 12 12 14 17 17 16 18 21 24 27 25 23 21 20 23 21 21 22
18 19 9 12 15 13 17 16 16 15 8 10 3 12 10 12 14 14 13 12 12 11 11 11 13 14 14 14 15 16 18 18 17 16 18 18 20 21 19 19 19 20 20 21
7 8 14 16 16 15 10 2 8 11 13 16 19 9 7 4 13 19 17 15 14 13 13 13 15 16 15 15 16 17 19 20 21 21 21 23 23 21 19 17 17 16 17 19
16 4 8 9 2 12 10 7 3 3 7 12 16 16 13 11 11 14 17 17 17 16 14 16 16 16 16 16 18 19 20 21 22 22 21 22 22 19 17 14 14 13 13 14
18 18 6 5 7 3 13 8 4 5 6 9 2 13 16 6 5 11 21 20 20 19 17 15 18 18 17 17 17 18 20 21 20 21 21 21 21 19 17 14 13 11 11 11
15 10 23 17 24 14 20 18 8 6 7 5 1 9 6 5 5 6 17 19 19 19 16 16 20 20 20 20 19 19 20 21 19 20 20 18 17 16 14 13 12 11 8 8
11 13 4 10 16 21 12 16 9 2 1 4 7 11 3 6 7 12 18 19 19 20 18 18 21 20 20 19 19 19 20 20 18 18 17 16 15 14 14 11 9 8 8 8
6 9 4 6 4 10 11 11 6 4 6 7 8 12 9 10 14 15 20 21 20 19 18 17 22 23 22 20 20 19 19 19 18 17 15 14 14 12 11 10 10 8 8 9
11 8 3 6 14 17 8 13 9 6 8 3 4 5 4 10 18 21 20 21 21 20 19 17 22 23 22 22 21 20 20 19 17 16 15 15 13 12 10 9 8 6 6 8
19 4 10 13 2 11 21 14 20 6 6 6 3 7 4 4 12 16 18 18 18 19 18 18 23 24 23 23 23 22 21 20 19 17 17 15 13 10 8 7 5 4 4 5
11 5 3 2 5 4 9 18 17 18 1 12 6 6 1 3 7 13 16 18 18 19 19 17 22 24 26 25 25 24 22 20 19 19 18 15 12 9 7 5 3 2 2 4
11 5 7 13 2 7 9 17 21 18 9 20 17 12 4 7 10 13 15 18 19 20 21 19 18 25 28 27 26 25 23 21 21 19 17 14 12 9 7 5 3 0 3 5
12 8 12 23 6 3 5 12 21 24 30 15 26 20 12 13 14 17 16 16 19 21 22 22 20 23 28 28 27 25 24 22 22 19 16 14 12 10 8 6 3 1 4 8
5 7 10 18 17 10 8 13 16 26 28 27 27 19 3 13 11 14 16 17 19 21 23 22 20 25 29 31 30 28 26 25 24 20 18 16 13 12 10 6 2 3 7 10
9 8 7 8 5 3 6 25 18 21 25 19 24 21 5 3 7 9 12 16 19 21 22 22 23 29 31 33 32 30 28 26 24 22 21 19 16 13 10 6 2 5 8 11
5 4 3 1 5 7 1 4 18 23 17 18 5 2 6 4 4 3 3 14 15 14 16 18 23 28 32 33 31 29 28 28 27 26 24 20 17 14 10 5 3 6 9 11
2 3 3 3 6 8 3 4 6 9 10 7 13 9 7 5 3 7 8 5 9 13 13 22 28 29 30 32 32 32 32 31 29 27 25 22 19 15 10 5 5 7 10 11
1 3 3 3 4 6 1 3 1 5 7 8 13 12 8 11 8 9 7 5 4 9 15 19 26 28 32 32 36 35 31 30 29 29 26 23 20 15 9 7 6 8 10 12
3 2 10 7 5 4 3 6 2 6 4 2 7 6 10 6 2 4 8 7 9 11 15 20 25 27 28 32 35 30 29 30 30 28 26 23 18 13 11 9 8 9 10 11
9 8 5 4 5 8 6 7 7 0 2 3 4 6 7 4 5 5 7 7 8 11 16 18 19 20 26 31 34 28 29 28 29 28 26 22 18 15 13 11 9 9 10 11
4 4 4 7 3 0 8 2 2 2 2 3 2 3 5 6 4 7 6 8 8 13 15 19 21 22 24 29 31 29 27 30 29 28 26 21 18 16 14 12 10 9 8 9
4 2 2 2 1 2 5 3 2 2 0 0 1 4 6 8 7 6 6 6 6 13 16 20 22 20 21 27 28 26 29 30 30 28 24 22 19 17 15 12 11 10 9 8
2 6 4 2 4 4 6 8 7 4 2 2 2 4 8 6 5 6 5 6 9 13 17 22 22 22 24 28 28 27 27 28 28 27 25 21 19 17 14 13 12 11 12 12
6 5 5 2 4 1 3 9 10 8 8 6 6 4 4 5 6 4 5 9 13 15 19 20 23 23 25 26 27 29 29 28 30 29 26 22 19 16 15 12 12 12 14 13
Wind_Direction
203 216 219 225 224 251 281 283 262 257 155 259 240 252 249 195 211 216 210 205 196 176 140 121 106 95 96 98 111 117 116 113 111 109 105 99 92 89 81 75 71 71 69 68
183 229 238 243 271 239 247 259 258 260 233 243 265 263 256 217 217 220 217 208 193 170 159 139 128 113 104 107 114 120 118 121 112 106 104 103 102 94 91 84 77 72 68 67
224 232 219 223 229 226 236 243 254 260 266 243 274 269 255 239 212 222 229 210 185 181 163 152 146 128 121 115 114 117 121 120 115 113 111 105 100 94 89 82 78 73 75 73
248 249 207 204 227 216 246 236 248 262 258 262 171 286 281 199 210 216 204 193 184 169 160 152 147 137 128 119 118 115 114 111 111 115 112 109 102 96 89 83 78 69 63 63
224 190 200 218 218 201 249 85 220 238 255 274 256 264 276 170 215 211 200 190 181 171 163 153 143 136 129 127 123 119 114 108 107 110 110 108 105 104 103 97 89 79 68 62
266 7 223 224 125 196 129 111 110 235 260 256 240 234 265 205 230 200 188 185 172 167 160 147 140 136 128 124 122 119 115 109 108 108 107 106 106 106 100 93 82 72 63 54
231 228 195 184 145 152 199 179 232 238 209 255 235 221 251 180 185 190 182 181 174 166 160 154 152 145 140 134 129 124 118 113 110 108 106 106 105 104 99 90 80 70 60 50
218 232 201 195 215 200 201 196 198 237 215 249 67 232 235 42 95 176 175 176 173 170 166 164 161 154 149 148 144 137 129 122 119 116 112 108 105 100 97 97 99 93 75 60
214 239 259 182 218 212 190 222 231 18 180 283 219 241 197 164 168 168 168 173 177 175 171 169 165 163 158 155 151 144 136 129 124 119 115 111 110 111 111 103 95 87 82 61
265 266 178 166 184 240 208 156 166 196 215 233 244 251 232 204 192 180 179 182 179 176 174 173 172 169 166 161 155 151 146 139 134 128 124 121 118 114 112 110 98 78 51 32
230 243 132 153 205 187 179 202 217 207 227 248 273 239 141 203 190 187 186 185 180 178 177 174 174 175 170 167 164 159 153 146 142 140 136 131 129 127 121 103 83 63 32 17
212 223 226 212 118 248 219 209 205 206 188 231 288 257 122 97 178 185 188 183 181 181 177 175 175 175 174 172 170 167 162 157 154 149 146 145 143 133 115 99 82 56 25 3
168 202 182 237 229 211 225 219 222 227 326 224 200 247 92 143 173 181 183 182 183 180 177 177 179 181 179 178 176 173 169 165 159 155 152 149 142 131 116 111 106 73 20 357
161 186 225 227 157 147 202 207 209 214 225 238 234 245 195 207 183 178 183 182 182 183 183 183 185 186 184 181 180 177 174 170 163 160 156 152 149 142 145 161 149 4 341 336
176 220 210 246 251 80 277 228 208 210 226 216 247 235 224 203 195 191 181 178 184 188 189 191 188 186 185 181 181 179 175 169 165 161 159 156 157 162 171 174 179 294 327 332
191 226 218 244 245 227 232 247 230 221 230 233 244 248 54 184 184 172 178 183 192 194 198 195 188 185 187 182 180 177 173 171 168 164 162 169 168 175 186 188 200 318 331 333
180 205 186 239 210 149 251 229 228 230 227 233 235 242 119 119 174 199 185 191 197 200 199 194 192 188 187 181 177 173 170 169 166 168 176 176 182 188 189 192 237 318 325 326
177 191 182 185 131 223 296 8 236 224 237 228 245 156 146 141 201 307 222 201 206 206 199 198 192 187 185 178 173 168 165 170 172 179 183 183 189 193 194 196 268 311 318 315
291 179 169 210 211 321 252 191 163 182 243 207 223 206 149 115 79 260 219 232 214 205 202 197 191 184 177 171 167 163 168 175 177 182 186 190 195 195 195 212 267 295 300 301
235 312 226 167 214 227 340 140 187 95 273 206 197 221 172 145 210 238 158 167 167 161 173 165 169 173 172 171 169 166 167 173 182 185 191 195 196 198 204 224 255 275 289 298
170 201 220 211 225 248 202 144 151 149 272 53 182 143 146 194 211 98 132 157 154 145 146 154 162 168 171 167 166 164 170 182 188 191 193 195 196 200 212 226 246 268 284 288
176 173 199 215 230 252 132 99 184 355 15 111 133 166 181 142 128 135 146 139 134 127 139 149 148 151 164 174 177 169 179 184 191 193 193 196 198 204 215 228 245 258 269 283
209 212 192 208 212 76 204 71 166 344 124 189 172 163 166 144 162 144 143 144 147 148 148 155 154 156 169 179 181 175 181 191 192 192 196 197 201 209 219 225 233 246 264 277
227 159 237 218 127 279 229 244 266 221 55 17 296 158 173 167 150 139 133 142 145 154 160 166 165 162 171 187 189 193 192 195 195 195 196 199 205 210 217 224 234 243 251 261
84 154 154 297 265 288 249 236 238 186 158 176 165 185 189 153 160 153 149 158 169 170 175 181 179 182 189 193 195 199 201 201 196 199 199 202 206 210 219 226 234 243 252 254
180 163 188 209 184 243 223 215 208 178 201 199 175 164 167 153 164 144 175 185 180 182 185 188 198 200 201 202 201 206 208 204 200 198 200 204 207 212 217 224 239 246 247 252